Weather History for KDCM - February, 2014

Change the Weather History Date:

Wednesday, February 19, 2014

  Actual Average (KUZA) Record (KUZA)
Temperature  
Mean Temperature 64 °F -  
Max Temperature 77 °F 57 °F 76 °F (1951)
Min Temperature 51 °F 35 °F 9 °F (2015)
Degree Days  
Heating Degree Days 1    
Growing Degree Days 14 (Base 50)    
Moisture  
Dew Point 56 °F    
Average Humidity 77    
Maximum Humidity 100    
Minimum Humidity 44    
Precipitation  
Precipitation 0.11 in - - ()
Sea Level Pressure  
Sea Level Pressure 30.01 in    
Wind  
Wind Speed 5 mph (SSW)    
Max Wind Speed 12 mph    
Max Gust Speed 23 mph    
Visibility 9 miles    
Events Rain , Thunderstorm    
Averages and records for this station are not official NWS values.
T = Trace of Precipitation, MM = Missing Value Source: NWS Daily Summary

Daily Weather History Graph

Daily Weather History Graph

Search for Another Location

Airport or City:

Trip Planner

Search our weather history database for the weather conditions in past years. The results will help you decide how hot, cold, wet, or windy it might be!

Date:

Astronomy

Feb. 19, 2014 Rise Set
Actual Time 7:06 AM EST 6:11 PM EST
Civil Twilight 6:40 AM EST 6:37 PM EST
Nautical Twilight 6:10 AM EST 7:06 PM EST
Astronomical Twilight 5:41 AM EST 7:36 PM EST
Moon 10:50 PM EST (2/19) 9:23 AM EST (2/19)
Length of Visible Light 11h 56m
Length of Day
11h 05m
Waning Gibbous, 80% of the Moon is Illuminated
Feb 19
Waning Gibbous
Feb 22
Last Quarter
Mar 1
New
Mar 8
First Quarter
Mar 16
Full

Hourly Weather History & Observations

Time (EST) Temp. Dew Point Humidity Pressure Visibility Wind Dir Wind Speed Gust Speed Precip Events Conditions
12:35 AM 53.6 °F 42.8 °F 67% 30.05 in 10.0 mi SSE 6.9 mph - N/A Thunderstorm Thunderstorm
12:55 AM 55.4 °F 42.8 °F 63% 30.05 in 10.0 mi SSE 3.5 mph - N/A Thunderstorm Thunderstorm
1:15 AM 53.6 °F 46.4 °F 77% 30.06 in - West 3.5 mph - 0.05 in Thunderstorm Thunderstorm
1:35 AM 51.8 °F 51.8 °F 100% 30.05 in 7.0 mi Calm Calm - 0.11 in Thunderstorm Thunderstorm
1:55 AM 51.8 °F 51.8 °F 100% 30.02 in 5.0 mi South 4.6 mph - 0.11 in Thunderstorm Mostly Cloudy
2:15 AM 51.8 °F 51.8 °F 100% 30.02 in 7.0 mi South 5.8 mph - N/A Thunderstorm Thunderstorm
2:35 AM - - N/A% 30.01 in - South 6.9 mph - N/A Thunderstorm Thunderstorm
2:55 AM 53.6 °F 53.6 °F 100% 30.01 in 10.0 mi South 8.1 mph - N/A Thunderstorm Thunderstorm
3:15 AM 55.4 °F 53.6 °F 94% 30.01 in 10.0 mi SSW 4.6 mph - N/A Rain , Thunderstorm Light Thunderstorms and Rain
3:35 AM 53.6 °F 53.6 °F 100% 30.02 in 10.0 mi Calm Calm - N/A Thunderstorm Thunderstorm
3:55 AM 55.4 °F 53.6 °F 94% 30.01 in 10.0 mi Calm Calm - N/A Thunderstorm Overcast
4:15 AM 55.4 °F 55.4 °F 100% 30.01 in 7.0 mi Calm Calm - N/A Thunderstorm Thunderstorm
4:35 AM 55.4 °F 55.4 °F 100% 30.01 in 7.0 mi Calm Calm - N/A Thunderstorm Overcast
4:55 AM 55.4 °F 55.4 °F 100% 30.01 in 7.0 mi Calm Calm - N/A Thunderstorm Overcast
5:15 AM 55.4 °F 55.4 °F 100% 30.00 in 7.0 mi Calm Calm - N/A   Overcast
5:35 AM 53.6 °F 53.6 °F 100% 30.00 in 5.0 mi Calm Calm - N/A Thunderstorm Overcast
5:55 AM 55.4 °F 55.4 °F 100% 30.00 in 5.0 mi SSW 3.5 mph - N/A   Overcast
6:15 AM 55.4 °F 55.4 °F 100% 30.00 in 5.0 mi South 5.8 mph - N/A Thunderstorm Overcast
6:35 AM 57.2 °F 57.2 °F 100% 29.99 in 5.0 mi South 3.5 mph - N/A Thunderstorm Overcast
6:55 AM 59.0 °F 59.0 °F 100% 29.99 in 7.0 mi South 5.8 mph - N/A   Overcast
7:15 AM 59.0 °F 59.0 °F 100% 29.99 in 7.0 mi South 5.8 mph - N/A Thunderstorm Mostly Cloudy
7:35 AM 59.0 °F 59.0 °F 100% 29.99 in 7.0 mi SSW 8.1 mph - N/A   Clear
7:55 AM 60.8 °F 60.8 °F 100% 29.99 in 7.0 mi SSW 9.2 mph - N/A   Scattered Clouds
8:15 AM 60.8 °F 60.8 °F 100% 30.00 in 10.0 mi SSW 6.9 mph - N/A Thunderstorm Scattered Clouds
8:35 AM 62.6 °F 60.8 °F 94% 30.00 in 10.0 mi SSW 8.1 mph - N/A   Mostly Cloudy
8:55 AM 62.6 °F 60.8 °F 94% 30.01 in 10.0 mi SW 9.2 mph - N/A   Mostly Cloudy
9:15 AM 64.4 °F 60.8 °F 88% 30.00 in 10.0 mi SSW 10.4 mph 18.4 mph N/A   Mostly Cloudy
9:35 AM 64.4 °F 60.8 °F 88% 30.00 in 10.0 mi SSW 11.5 mph 18.4 mph N/A   Mostly Cloudy
9:55 AM 66.2 °F 60.8 °F 83% 30.01 in 10.0 mi SW 9.2 mph 19.6 mph N/A   Overcast
10:15 AM 68.0 °F 59.0 °F 73% 30.00 in 10.0 mi SW 6.9 mph 18.4 mph N/A   Mostly Cloudy
10:35 AM 68.0 °F 59.0 °F 73% 30.01 in 10.0 mi SW 8.1 mph 16.1 mph N/A   Mostly Cloudy
10:55 AM 69.8 °F 59.0 °F 68% 30.01 in 10.0 mi SSW 6.9 mph 16.1 mph N/A   Mostly Cloudy
11:15 AM 69.8 °F 59.0 °F 68% 30.00 in 10.0 mi SW 10.4 mph 16.1 mph N/A   Mostly Cloudy
11:35 AM 71.6 °F 59.0 °F 64% 29.99 in 7.0 mi SSW 11.5 mph 18.4 mph N/A   Mostly Cloudy
11:55 AM 73.4 °F 59.0 °F 61% 29.99 in 7.0 mi SW 11.5 mph 18.4 mph N/A   Mostly Cloudy
12:15 PM 73.4 °F 59.0 °F 61% 29.99 in 10.0 mi SW 9.2 mph 19.6 mph N/A   Mostly Cloudy
12:35 PM 73.4 °F 57.2 °F 57% 29.98 in 10.0 mi SW 9.2 mph 19.6 mph N/A   Mostly Cloudy
12:55 PM 73.4 °F 57.2 °F 57% 29.97 in 10.0 mi SW 10.4 mph 18.4 mph N/A   Mostly Cloudy
1:15 PM 75.2 °F 57.2 °F 53% 29.97 in 10.0 mi SW 9.2 mph - N/A Thunderstorm Mostly Cloudy
1:35 PM 75.2 °F 55.4 °F 50% 29.96 in 7.0 mi SW 5.8 mph 17.3 mph N/A   Mostly Cloudy
1:55 PM 75.2 °F 55.4 °F 50% 29.96 in 7.0 mi SW 9.2 mph - N/A   Mostly Cloudy
2:15 PM 77.0 °F 55.4 °F 47% 29.96 in 7.0 mi WSW 11.5 mph 18.4 mph N/A   Scattered Clouds
2:35 PM 77.0 °F 55.4 °F 47% 29.96 in 10.0 mi SW 11.5 mph 19.6 mph N/A   Scattered Clouds
2:55 PM 77.0 °F 53.6 °F 44% 29.95 in 10.0 mi WSW 10.4 mph 23.0 mph N/A   Scattered Clouds
3:15 PM 77.0 °F 53.6 °F 44% 29.95 in 10.0 mi WSW 8.1 mph 17.3 mph N/A   Clear
3:35 PM 77.0 °F 53.6 °F 44% 29.96 in 10.0 mi SSW 8.1 mph - N/A   Scattered Clouds
3:55 PM 77.0 °F 53.6 °F 44% 29.96 in 10.0 mi SW 9.2 mph 18.4 mph N/A   Scattered Clouds
4:15 PM 77.0 °F 53.6 °F 44% 29.97 in 10.0 mi SW 8.1 mph 16.1 mph N/A   Scattered Clouds
4:35 PM 73.4 °F 53.6 °F 50% 29.97 in 10.0 mi SW 11.5 mph 19.6 mph N/A   Clear
4:55 PM 73.4 °F 53.6 °F 50% 29.98 in 10.0 mi SSW 5.8 mph - N/A   Clear
5:15 PM 73.4 °F 53.6 °F 50% 29.98 in 10.0 mi SW 8.1 mph - N/A   Clear
5:35 PM 71.6 °F 55.4 °F 57% 29.99 in 10.0 mi SSW 5.8 mph - N/A   Clear
5:55 PM 71.6 °F 55.4 °F 57% 30.00 in 10.0 mi SSW 3.5 mph - N/A   Clear
6:15 PM 69.8 °F 55.4 °F 60% 30.01 in 10.0 mi SSW 3.5 mph - N/A   Clear
6:35 PM 69.8 °F 55.4 °F 60% 30.02 in 10.0 mi SSW 4.6 mph - N/A   Clear
6:55 PM 68.0 °F 55.4 °F 64% 30.02 in 10.0 mi SSW 3.5 mph - N/A   Clear
7:15 PM 68.0 °F 57.2 °F 68% 30.03 in 7.0 mi SSW 4.6 mph - N/A   Clear
7:35 PM 66.2 °F 57.2 °F 73% 30.04 in 10.0 mi SW 3.5 mph - N/A   Clear
7:55 PM 64.4 °F 57.2 °F 77% 30.04 in 7.0 mi SSW 3.5 mph - N/A   Clear
8:15 PM 64.4 °F 57.2 °F 77% 30.05 in 10.0 mi Calm Calm - N/A   Clear
8:35 PM 62.6 °F 57.2 °F 82% 30.05 in 10.0 mi SW 3.5 mph - N/A   Clear
8:55 PM 60.8 °F 57.2 °F 88% 30.06 in 10.0 mi SW 3.5 mph - N/A   Clear
9:15 PM 60.8 °F 57.2 °F 88% 30.06 in 10.0 mi Calm Calm - N/A   Clear
9:35 PM 60.8 °F 57.2 °F 88% 30.07 in 10.0 mi SSW 4.6 mph - N/A   Clear
9:55 PM 60.8 °F 57.2 °F 88% 30.07 in 10.0 mi SSW 3.5 mph - N/A   Clear
10:15 PM 60.8 °F 57.2 °F 88% 30.08 in 10.0 mi SSW 3.5 mph - N/A   Clear
10:35 PM 60.8 °F 57.2 °F 88% 30.08 in 10.0 mi SSW 3.5 mph - N/A   Clear
10:55 PM 59.0 °F 57.2 °F 94% 30.08 in 10.0 mi SSW 3.5 mph - N/A   Clear
11:35 PM 59.0 °F 57.2 °F 94% 30.07 in 10.0 mi SSW 3.5 mph - N/A   Clear
11:55 PM 59.0 °F 57.2 °F 94% 30.08 in 10.0 mi Calm Calm - N/A   Clear